Billings, MT

1:29 PM MDT on September 25, 2016 (GMT -0600)
Billings Logan International

Weather History for KBIL - November, 2011

Change the Weather History Date:

Thursday, November 24, 2011

  Actual Average Record
Temperature  
Mean Temperature 47 °F 32 °F  
Max Temperature 59 °F 41 °F 66 °F (1990)
Min Temperature 34 °F 23 °F -14 °F (2010)
Degree Days  
Heating Degree Days 18 33  
Month to date heating degree days 729 669  
Since 1 July heating degree days 1236 1421  
Cooling Degree Days 0 0  
Month to date cooling degree days 0 0  
Year to date cooling degree days 734 636  
Moisture  
Dew Point 24 °F    
Average Humidity 44    
Maximum Humidity 64    
Minimum Humidity 23    
Precipitation  
Precipitation 0.00 in 0.02 in 0.31 in (1975)
Month to date precipitation 0.46 0.52  
Year to date precipitation 19.33 13.05  
Snow  
Snow 0.00 in 0.20 in 2.90 in (1975)
Month to date snowfall 6.5 5.0  
Since 1 July snowfall 6.5 10.2  
Since 1 September snowfall 6.5 10.2  
Snow Depth 0.00 in    
Sea Level Pressure  
Sea Level Pressure 29.69 in    
Wind  
Wind Speed 9 mph (WSW)    
Max Wind Speed 16 mph    
Max Gust Speed 21 mph    
Visibility 10 miles    
Events      
T = Trace of Precipitation, MM = Missing Value Source: NWS Daily Summary

Daily Weather History Graph

Daily Weather History Graph

Search for Another Location

Airport or City:

Trip Planner

Search our weather history database for the weather conditions in past years. The results will help you decide how hot, cold, wet, or windy it might be!

Date:

Astronomy

Nov. 24, 2011 Rise Set
Actual Time 7:26 AM MST 4:35 PM MST
Civil Twilight 6:52 AM MST 5:08 PM MST
Nautical Twilight 6:16 AM MST 5:45 PM MST
Astronomical Twilight 5:40 AM MST 6:20 PM MST
Moon 6:48 AM MST (11/24) 4:06 PM MST (11/24)
Length of Visible Light 10h 15m
Length of Day
9h 09m
Waning Crescent, 0% of the Moon is Illuminated
Nov 24
Waning Crescent
Nov 24
New
Dec 2
First Quarter
Dec 10
Full
Dec 17
Last Quarter

Hourly Weather History & Observations

Time (MST) Temp. Windchill Dew Point Humidity Pressure Visibility Wind Dir Wind Speed Gust Speed Precip Events Conditions
12:53 AM 45.0 °F 40.6 °F 24.1 °F 44% 29.68 in 10.0 mi SSW 8.1 mph - N/A   Scattered Clouds
1:53 AM 44.1 °F 40.1 °F 24.1 °F 45% 29.68 in 10.0 mi SSW 6.9 mph - N/A   Partly Cloudy
2:53 AM 46.9 °F - 23.0 °F 39% 29.68 in 10.0 mi WSW 11.5 mph - N/A   Clear
3:53 AM 46.9 °F - 21.9 °F 37% 29.68 in 10.0 mi WSW 9.2 mph - N/A   Clear
4:53 AM 41.0 °F 35.8 °F 23.0 °F 49% 29.70 in 10.0 mi SSW 8.1 mph - N/A   Clear
5:53 AM 42.1 °F 36.6 °F 23.0 °F 47% 29.71 in 10.0 mi South 9.2 mph - N/A   Clear
6:53 AM 43.0 °F 38.2 °F 23.0 °F 45% 29.71 in 10.0 mi SSW 8.1 mph - N/A   Partly Cloudy
7:53 AM 43.0 °F 37.2 °F 23.0 °F 45% 29.71 in 10.0 mi WSW 10.4 mph - N/A   Partly Cloudy
8:53 AM 46.9 °F - 21.9 °F 37% 29.71 in 10.0 mi WSW 10.4 mph - N/A   Clear
9:53 AM 46.9 °F - 23.0 °F 39% 29.71 in 10.0 mi SW 10.4 mph - N/A   Clear
10:53 AM 53.1 °F - 24.1 °F 32% 29.69 in 10.0 mi SW 9.2 mph - N/A   Partly Cloudy
11:53 AM 55.9 °F - 24.1 °F 29% 29.67 in 10.0 mi SW 10.4 mph - N/A   Partly Cloudy
12:53 PM 59.0 °F - 21.0 °F 23% 29.65 in 10.0 mi SW 9.2 mph - N/A   Scattered Clouds
1:53 PM 57.0 °F - 23.0 °F 27% 29.65 in 10.0 mi WSW 9.2 mph - N/A   Scattered Clouds
2:53 PM 55.9 °F - 21.9 °F 27% 29.65 in 10.0 mi West 11.5 mph - N/A   Partly Cloudy
3:53 PM 55.0 °F - 21.9 °F 28% 29.65 in 10.0 mi WSW 9.2 mph - N/A   Partly Cloudy
4:53 PM 48.9 °F - 28.9 °F 46% 29.70 in 10.0 mi NE 9.2 mph - N/A   Scattered Clouds
5:53 PM 46.4 °F 41.5 °F 26.6 °F 46% 29.70 in 10.0 mi NNE 10.4 mph - N/A   Scattered Clouds
6:53 PM 45.0 °F 40.6 °F 27.0 °F 49% 29.72 in 10.0 mi NNE 8.1 mph - N/A   Scattered Clouds
7:53 PM 44.1 °F 39.5 °F 27.0 °F 51% 29.72 in 10.0 mi North 8.1 mph - N/A   Mostly Cloudy
8:53 PM 42.8 °F 38.0 °F 26.6 °F 53% 29.69 in 10.0 mi North 8.1 mph - N/A   Scattered Clouds
9:53 PM 41.0 °F 38.0 °F 27.0 °F 57% 29.69 in 10.0 mi North 4.6 mph - N/A   Scattered Clouds
10:53 PM 37.9 °F - 26.1 °F 62% 29.68 in 10.0 mi Calm Calm - N/A   Partly Cloudy
11:53 PM 39.0 °F 32.3 °F 27.0 °F 62% 29.67 in 10.0 mi SSW 10.4 mph - N/A   Clear